TimeSAST,TemperatureF,Dew PointF,Humidity,Sea Level PressureIn,VisibilityMPH,Wind Direction,Wind SpeedMPH,Gust SpeedMPH,PrecipitationIn,Events,Conditions,WindDirDegrees,DateUTC
12:00 AM,57.2,55.4,94,30.04,5.0,NNW,4.6,-,N/A,,Scattered Clouds,330,2012-11-05 22:00:00
1:00 AM,57.2,55.4,94,30.04,5.0,NW,5.8,-,N/A,,Unknown,310,2012-11-05 23:00:00
2:00 AM,56,54,91,30.04,5,NW,4.6,,,,,310,2012-11-06 00:00:00
2:00 AM,57.2,53.6,88,30.04,5.0,NW,4.6,-,N/A,,Unknown,310,2012-11-06 00:00:00
3:00 AM,57.2,53.6,88,30.01,5.6,NNW,3.5,-,N/A,,Unknown,330,2012-11-06 01:00:00
4:00 AM,57.2,53.6,88,30.01,-9999.0,NNW,3.5,-,N/A,,Clear,340,2012-11-06 02:00:00
5:00 AM,56,54,89,30.01,12,West,3.5,,,,Clear,270,2012-11-06 03:00:00
5:00 AM,57.2,53.6,88,30.01,-9999.0,WNW,3.5,-,N/A,,Clear,290,2012-11-06 03:00:00
6:00 AM,57.2,53.6,88,30.01,-9999.0,WNW,4.6,-,N/A,,Clear,300,2012-11-06 04:00:00
7:00 AM,59.0,55.4,88,30.04,-9999.0,West,5.8,-,N/A,,Clear,260,2012-11-06 05:00:00
8:00 AM,63,56,73,30.06,12,West,5.8,,,,,280,2012-11-06 06:00:00
8:00 AM,64.4,57.2,77,30.06,-9999.0,West,5.8,-,N/A,,Clear,280,2012-11-06 06:00:00
9:00 AM,66.2,55.4,68,30.06,-9999.0,SW,4.6,-,N/A,,Clear,220,2012-11-06 07:00:00
10:00 AM,68.0,57.2,68,30.06,-9999.0,South,6.9,-,N/A,,Clear,190,2012-11-06 08:00:00
11:00 AM,70,57,54,30.06,12,SSW,5.8,,,,Scattered Clouds,210,2012-11-06 09:00:00
11:00 AM,69.8,57.2,64,30.06,6.2,SSW,6.9,-,N/A,,Partly Cloudy,210,2012-11-06 09:00:00
12:00 PM,69.8,59.0,68,30.06,6.2,SSE,8.1,-,N/A,,Partly Cloudy,160,2012-11-06 10:00:00
1:00 PM,69.8,59.0,68,30.06,6.2,South,6.9,-,N/A,,Partly Cloudy,170,2012-11-06 11:00:00
2:00 PM,69,57,57,30.06,12,South,9.2,,,,Scattered Clouds,180,2012-11-06 12:00:00
2:00 PM,68.0,57.2,68,30.06,6.2,South,10.4,-,N/A,,Partly Cloudy,170,2012-11-06 12:00:00
3:00 PM,68.0,57.2,68,30.06,6.2,South,8.1,-,N/A,,Partly Cloudy,180,2012-11-06 13:00:00
4:00 PM,64.4,57.2,77,30.06,6.2,South,8.1,-,N/A,,Scattered Clouds,170,2012-11-06 14:00:00
5:00 PM,64,58,74,30.09,12,SSW,9.2,,,,Mostly Cloudy,200,2012-11-06 15:00:00
5:00 PM,64.4,57.2,77,30.09,6.2,SSW,8.1,-,N/A,,Scattered Clouds,200,2012-11-06 15:00:00
6:00 PM,62.6,57.2,82,30.12,6.2,SSW,5.8,-,N/A,,Scattered Clouds,210,2012-11-06 16:00:00
7:00 PM,60.8,55.4,82,30.12,6.2,WNW,4.6,-,N/A,,Partly Cloudy,290,2012-11-06 17:00:00
8:00 PM,61,56,80,30.15,12,WNW,3.5,,,,Scattered Clouds,290,2012-11-06 18:00:00
8:00 PM,60.8,55.4,82,30.15,6.2,West,3.5,-,N/A,,Partly Cloudy,280,2012-11-06 18:00:00
9:00 PM,60.8,57.2,88,30.18,6.2,SW,6.9,-,N/A,,Mostly Cloudy,230,2012-11-06 19:00:00
10:00 PM,60.8,57.2,88,30.18,6.2,NW,3.5,-,N/A,,Mostly Cloudy,320,2012-11-06 20:00:00
11:00 PM,60.8,57.2,88,30.18,6.2,NW,5.8,-,N/A,,Overcast,320,2012-11-06 21:00:00